START_TIME,STEP,MOV.,M29,t_acc.,H22,t_acc.,H26,t_acc.,H30,t_acc.
1979-03-10 00:00:29.410 ,2,1,0.,24.0,0.,24.0,0.,24.0,0.,24.0
1979-03-10 00:00:53.410 ,6,1,0.,24.0,0.,24.0,0.,24.0,0.,24.0
1979-03-10 00:01:17.410 ,5,1,0.,24.0,0.,24.0,0.,24.0,0.,24.0
1979-03-10 00:01:41.410 ,1,1,0.,24.0,0.,24.0,0.,24.0,0.,24.0
1979-03-10 00:02:05.410 ,2,1,0.,24.0,0.,24.0,0.,24.0,0.,24.0
1979-03-10 00:02:29.410 ,6,1,0.,24.0,0.,24.0,0.,24.0,0.,24.0
1979-03-10 00:02:53.410 ,5,1,0.,24.0,0.,24.0,0.,24.0,0.,24.0
1979-03-10 00:03:17.410 ,1,1,0.,24.0,0.,24.0,0.,24.0,0.,24.0
1979-03-10 00:03:41.410 ,2,1,0.,24.0,0.,24.0,0.,24.0,0.,24.0
1979-03-10 00:04:05.410 ,6,1,0.,24.0,0.,24.0,0.,24.0,0.,24.0
1979-03-10 00:04:29.410 ,5,1,0.,24.0,0.,24.0,0.,24.0,0.,24.0
1979-03-10 00:04:53.410 ,1,1,0.,24.0,0.,24.0,0.,24.0,0.,24.0
1979-03-10 00:05:17.410 ,2,1,0.,24.0,0.,24.0,0.,24.0,0.,24.0
1979-03-10 00:05:41.410 ,6,1,0.,24.0,0.,24.0,0.,24.0,0.,24.0
1979-03-10 00:06:05.410 ,5,1,0.,24.0,0.,24.0,0.,24.0,0.,24.0
1979-03-10 00:06:29.410 ,1,1,0.,24.0,0.,24.0,0.,24.0,0.,24.0
1979-03-10 00:06:53.410 ,2,1,0.,24.0,0.,24.0,0.,24.0,0.,24.0
1979-03-10 00:07:17.410 ,6,1,0.,24.0,0.,24.0,0.,24.0,0.,24.0
1979-03-10 00:07:41.410 ,5,1,0.,24.0,0.,24.0,0.,24.0,0.,24.0
1979-03-10 00:08:05.410 ,1,1,0.,24.0,0.,24.0,0.,24.0,0.,24.0
1979-03-10 00:08:29.410 ,2,1,0.,24.0,0.,24.0,0.,24.0,0.,24.0
1979-03-10 00:08:53.410 ,6,1,0.,24.0,0.,24.0,0.,24.0,0.,24.0
1979-03-10 00:09:17.410 ,5,1,0.,24.0,0.,24.0,0.,24.0,0.,24.0
1979-03-10 00:09:41.410 ,1,1,0.,24.0,0.,24.0,0.,24.0,0.,24.0
1979-03-10 00:10:05.410 ,2,1,0.,24.0,0.,24.0,0.,24.0,0.,24.0
1979-03-10 00:10:29.410 ,6,1,0.,24.0,0.,24.0,0.,24.0,0.,24.0
1979-03-10 00:10:53.410 ,5,1,0.,24.0,0.,24.0,0.,24.0,0.,24.0
1979-03-10 00:11:17.410 ,1,1,0.,24.0,0.,24.0,0.,24.0,0.,24.0
1979-03-10 00:11:41.410 ,2,1,0.,24.0,0.,24.0,0.,24.0,0.,24.0
1979-03-10 00:12:05.410 ,6,1,0.,24.0,0.,24.0,0.,24.0,0.,24.0
1979-03-10 00:12:29.410 ,5,1,0.,24.0,0.,24.0,0.,24.0,0.,24.0
1979-03-10 00:12:53.410 ,1,1,0.,24.0,0.,24.0,0.,24.0,0.,24.0
1979-03-10 00:13:17.410 ,2,1,0.,24.0,0.,24.0,0.,24.0,0.,24.0
1979-03-10 00:13:41.410 ,6,1,0.,24.0,0.,24.0,0.,24.0,0.,24.0
1979-03-10 00:14:05.410 ,5,1,0.,24.0,0.,24.0,0.,24.0,0.,24.0
1979-03-10 00:14:29.410 ,1,1,0.,24.0,0.,24.0,0.,24.0,0.,24.0
1979-03-10 00:14:53.410 ,2,1,0.,24.0,0.,24.0,0.,24.0,0.,24.0
1979-03-10 00:15:17.410 ,6,1,0.,24.0,0.,24.0,0.,24.0,0.,24.0
1979-03-10 00:15:41.410 ,5,1,0.,24.0,0.,24.0,0.,24.0,0.,24.0
1979-03-10 00:16:05.410 ,1,1,0.,24.0,0.,24.0,0.,24.0,0.,24.0
1979-03-10 00:16:29.410 ,2,1,0.,24.0,0.,24.0,0.,24.0,0.,24.0
1979-03-10 00:16:53.410 ,6,1,0.,24.0,0.,24.0,0.,24.0,0.,24.0
1979-03-10 00:17:17.410 ,5,1,0.,24.0,0.,24.0,0.,24.0,0.,24.0
1979-03-10 00:17:41.410 ,1,1,0.,24.0,0.,24.0,0.,24.0,0.,24.0
1979-03-10 00:18:05.410 ,2,1,0.,24.0,0.,24.0,0.,24.0,0.,24.0
1979-03-10 00:18:29.410 ,6,1,0.,24.0,0.,24.0,0.,24.0,0.,24.0
1979-03-10 00:18:53.410 ,5,1,0.,24.0,0.,24.0,0.,24.0,0.,24.0
1979-03-10 00:19:17.410 ,1,1,0.,24.0,0.,24.0,0.,24.0,0.,24.0
1979-03-10 00:19:41.410 ,2,1,0.,24.0,0.,24.0,0.,24.0,0.,24.0
1979-03-10 00:20:05.410 ,6,1,0.,24.0,0.,24.0,0.,24.0,0.,24.0
1979-03-10 00:20:29.410 ,5,1,0.,24.0,0.,24.0,0.,24.0,0.,24.0
1979-03-10 00:20:53.410 ,1,1,0.,24.0,0.,24.0,0.,24.0,0.,24.0
1979-03-10 00:21:17.410 ,2,1,0.,24.0,0.,24.0,0.,24.0,0.,24.0
1979-03-10 00:21:41.410 ,6,1,0.,24.0,0.,24.0,0.,24.0,0.,24.0
1979-03-10 00:22:05.410 ,5,1,0.,24.0,0.,24.0,0.,24.0,0.,24.0
1979-03-10 00:22:29.410 ,1,1,0.,24.0,0.,24.0,0.,24.0,0.,24.0
1979-03-10 00:22:53.410 ,2,1,0.,24.0,0.,24.0,0.,24.0,0.,24.0
1979-03-10 00:23:17.410 ,6,1,0.,24.0,0.,24.0,0.,24.0,0.,24.0
1979-03-10 00:23:41.410 ,5,1,0.,24.0,0.,24.0,0.,24.0,0.,24.0
1979-03-10 00:24:05.410 ,1,1,0.,24.0,0.,24.0,0.,24.0,0.,24.0
1979-03-10 00:24:29.410 ,2,1,0.,24.0,0.,24.0,0.,24.0,0.,24.0
1979-03-10 00:24:53.410 ,6,1,0.,24.0,0.,24.0,0.,24.0,0.,24.0
1979-03-10 00:25:17.410 ,5,1,0.,24.0,0.,24.0,0.,24.0,0.,24.0
1979-03-10 00:25:41.410 ,1,1,0.,24.0,0.,24.0,0.,24.0,0.,24.0
1979-03-10 00:26:05.410 ,2,1,0.,24.0,0.,24.0,0.,24.0,0.,24.0
1979-03-10 00:26:29.410 ,6,1,0.,24.0,0.,24.0,0.,24.0,0.,24.0
1979-03-10 00:26:53.410 ,5,1,0.,24.0,0.,24.0,0.,24.0,0.,24.0
1979-03-10 00:27:17.410 ,1,1,0.,24.0,0.,24.0,0.,24.0,0.,24.0
1979-03-10 00:27:41.410 ,2,1,0.,24.0,0.,24.0,0.,24.0,0.,24.0
1979-03-10 00:28:05.410 ,6,1,0.,24.0,0.,24.0,0.,24.0,0.,24.0
1979-03-10 00:28:29.410 ,5,1,0.,24.0,0.,24.0,0.,24.0,0.,24.0
1979-03-10 00:28:53.410 ,1,1,0.,24.0,0.,24.0,0.,24.0,0.,24.0
1979-03-10 00:29:17.410 ,2,1,0.,24.0,0.,24.0,0.,24.0,0.,24.0
1979-03-10 00:29:41.410 ,6,1,0.,24.0,0.,24.0,0.,24.0,0.,24.0
1979-03-10 00:30:05.410 ,5,1,0.,24.0,0.,24.0,0.,24.0,0.,24.0
1979-03-10 00:30:29.410 ,1,1,0.,24.0,0.,24.0,0.,24.0,0.,24.0
1979-03-10 00:30:53.410 ,2,1,0.,24.0,0.,24.0,0.,24.0,0.,24.0
1979-03-10 00:31:17.410 ,6,1,0.,24.0,0.,24.0,0.,24.0,0.,24.0
1979-03-10 00:31:41.410 ,5,1,0.,24.0,0.,24.0,0.,24.0,0.,24.0
1979-03-10 00:32:05.410 ,1,1,0.,24.0,0.,24.0,0.,24.0,0.,24.0
1979-03-10 00:32:29.410 ,2,1,0.,24.0,0.,24.0,0.,24.0,0.,24.0
1979-03-10 00:32:53.410 ,6,1,0.,24.0,0.,24.0,0.,24.0,0.,24.0
1979-03-10 00:33:17.410 ,5,1,0.,24.0,0.,24.0,0.,24.0,0.,24.0
1979-03-10 00:33:41.410 ,1,1,0.,24.0,0.,24.0,0.,24.0,0.,24.0
1979-03-10 00:34:05.410 ,2,1,0.,24.0,0.,24.0,0.,24.0,0.,24.0
1979-03-10 00:34:29.410 ,6,1,0.,24.0,0.,24.0,0.,24.0,0.,24.0
1979-03-10 00:34:53.410 ,5,1,0.,24.0,0.,24.0,0.,24.0,0.,24.0
1979-03-10 00:35:17.410 ,1,1,0.,24.0,0.,24.0,0.,24.0,0.,24.0
1979-03-10 00:35:41.410 ,2,1,0.,24.0,0.,24.0,0.,24.0,0.,24.0
1979-03-10 00:36:05.410 ,6,1,0.,24.0,0.,24.0,0.,24.0,0.,24.0
1979-03-10 00:36:29.410 ,5,1,0.,24.0,0.,24.0,0.,24.0,0.,24.0
1979-03-10 00:36:53.410 ,1,1,0.,24.0,0.,24.0,0.,24.0,0.,24.0
1979-03-10 00:37:17.410 ,2,1,0.,24.0,0.,24.0,0.,24.0,0.,24.0
1979-03-10 00:37:41.410 ,6,1,0.,24.0,0.,24.0,0.,24.0,0.,24.0
1979-03-10 00:38:05.410 ,5,1,0.,24.0,0.,24.0,0.,24.0,0.,24.0
1979-03-10 00:38:29.410 ,1,1,0.,24.0,0.,24.0,0.,24.0,0.,24.0
1979-03-10 00:38:53.410 ,2,1,0.,24.0,0.,24.0,0.,24.0,0.,24.0
1979-03-10 00:39:17.410 ,5,1,0.,24.0,0.,24.0,0.,24.0,0.,24.0
1979-03-10 00:39:41.410 ,6,1,0.,24.0,0.,24.0,0.,24.0,0.,24.0
1979-03-10 00:40:05.410 ,7,1,0.,24.0,0.,24.0,0.,24.0,0.,24.0
1979-03-10 00:40:29.410 ,7,1,0.,24.0,0.,24.0,0.,24.0,0.,24.0
1979-03-10 00:40:53.410 ,6,1,0.,24.0,0.,24.0,0.,24.0,0.,24.0
1979-03-10 00:41:17.410 ,5,1,0.,24.0,0.,24.0,0.,24.0,0.,24.0
1979-03-10 00:41:41.410 ,4,1,0.,24.0,0.,24.0,0.,24.0,0.,24.0
1979-03-10 00:42:05.410 ,3,1,0.,24.0,0.,24.0,0.,24.0,0.,24.0
1979-03-10 00:42:29.410 ,2,1,0.,24.0,0.,24.0,0.,24.0,0.,24.0
1979-03-10 00:42:53.410 ,1,1,0.,24.0,0.,24.0,0.,24.0,0.,24.0
1979-03-10 00:43:17.410 ,0,1,0.,24.0,0.,24.0,0.,24.0,0.,24.0
1979-03-10 00:43:41.410 ,0,1,0.,24.0,0.,24.0,0.,24.0,0.,24.0
1979-03-10 00:44:05.410 ,1,1,0.,24.0,0.,24.0,0.,24.0,0.,24.0
1979-03-10 00:44:29.410 ,2,1,0.,24.0,0.,24.0,0.,24.0,0.,24.0
1979-03-10 00:44:53.410 ,3,1,0.,24.0,0.,24.0,0.,24.0,0.,24.0
1979-03-10 00:45:17.410 ,4,1,0.,24.0,0.,24.0,0.,24.0,0.,24.0
1979-03-10 00:45:41.410 ,5,1,0.,24.0,0.,24.0,0.,24.0,0.,24.0
1979-03-10 00:46:05.410 ,6,1,0.,24.0,0.,24.0,0.,24.0,0.,24.0
1979-03-10 00:46:29.410 ,7,1,0.,24.0,0.,24.0,0.,24.0,0.,24.0
1979-03-10 00:46:53.410 ,7,1,0.,24.0,0.,24.0,0.,24.0,0.,24.0
1979-03-10 00:47:17.410 ,6,1,0.,24.0,0.,24.0,0.,24.0,0.,24.0
1979-03-10 00:47:41.410 ,5,1,0.,24.0,0.,24.0,0.,24.0,0.,24.0
1979-03-10 00:48:05.410 ,4,1,0.,24.0,0.,24.0,0.,24.0,0.,24.0
1979-03-10 00:48:29.410 ,3,1,0.,24.0,0.,24.0,0.,24.0,0.,24.0
1979-03-10 00:48:53.410 ,2,1,0.,24.0,0.,24.0,0.,24.0,0.,24.0
1979-03-10 00:49:17.410 ,1,1,0.,24.0,0.,24.0,0.,24.0,0.,24.0
1979-03-10 00:49:41.410 ,0,1,0.,24.0,0.,24.0,0.,24.0,0.,24.0
1979-03-10 00:50:05.410 ,0,1,0.,24.0,0.,24.0,0.,24.0,0.,24.0
1979-03-10 00:50:29.410 ,1,1,0.,24.0,0.,24.0,0.,24.0,0.,24.0
1979-03-10 00:50:53.410 ,2,1,0.,24.0,0.,24.0,0.,24.0,0.,24.0
1979-03-10 00:51:17.410 ,3,1,0.,24.0,0.,24.0,0.,24.0,0.,24.0
1979-03-10 00:51:41.410 ,4,1,0.,24.0,0.,24.0,0.,24.0,0.,24.0
1979-03-10 00:52:05.410 ,5,1,0.,24.0,0.,24.0,0.,24.0,0.,24.0
1979-03-10 00:52:29.410 ,6,1,0.,24.0,0.,24.0,0.,24.0,0.,24.0
1979-03-10 00:52:53.410 ,7,1,0.,24.0,0.,24.0,0.,24.0,0.,24.0
1979-03-10 00:53:17.410 ,7,1,0.,24.0,0.,24.0,0.,24.0,0.,24.0
1979-03-10 00:53:41.410 ,6,1,0.,24.0,0.,24.0,0.,24.0,0.,24.0
1979-03-10 00:54:05.410 ,5,1,0.,24.0,0.,24.0,0.,24.0,0.,24.0
1979-03-10 00:54:29.410 ,4,1,0.,24.0,0.,24.0,0.,24.0,0.,24.0
1979-03-10 00:54:53.410 ,3,1,0.,24.0,0.,24.0,0.,24.0,0.,24.0
1979-03-10 00:55:17.410 ,2,1,0.,24.0,0.,24.0,0.,24.0,0.,24.0
1979-03-10 00:55:41.410 ,1,1,0.,24.0,0.,24.0,0.,24.0,0.,24.0
1979-03-10 00:56:05.410 ,0,1,0.,24.0,0.,24.0,0.,24.0,0.,24.0
1979-03-10 00:56:29.410 ,0,1,0.,24.0,0.,24.0,0.,24.0,0.,24.0
1979-03-10 00:56:53.410 ,1,1,0.,24.0,0.,24.0,0.,24.0,0.,24.0
1979-03-10 00:57:17.410 ,2,1,0.,24.0,0.,24.0,0.,24.0,0.,24.0
1979-03-10 00:57:41.410 ,3,1,0.,24.0,0.,24.0,0.,24.0,0.,24.0
1979-03-10 00:58:05.410 ,4,1,0.,24.0,0.,24.0,0.,24.0,0.,24.0
1979-03-10 00:58:29.410 ,5,1,0.,24.0,0.,24.0,0.,24.0,0.,24.0
1979-03-10 00:58:53.410 ,6,1,0.,24.0,0.,24.0,0.,24.0,0.,24.0
1979-03-10 00:59:17.410 ,7,1,0.,24.0,0.,24.0,0.,24.0,0.,24.0
1979-03-10 00:59:41.410 ,7,1,0.,24.0,0.,24.0,0.,24.0,0.,24.0
1979-03-10 01:00:05.410 ,6,1,0.,24.0,0.,24.0,0.,24.0,0.,24.0
1979-03-10 01:00:29.410 ,5,1,0.,24.0,0.,24.0,0.,24.0,0.,24.0
1979-03-10 01:00:53.410 ,4,1,0.,24.0,0.,24.0,0.,24.0,0.,24.0
1979-03-10 01:01:17.410 ,0,0,0.,24.0,0.,24.0,0.,24.0,0.,24.0
1979-03-10 01:01:43.810 ,0,0,0.,24.0,0.,24.0,0.,24.0,0.,24.0
1979-03-10 01:02:05.410 ,1,1,0.,24.0,0.,24.0,0.,24.0,0.,24.0
1979-03-10 01:02:29.410 ,0,1,0.,24.0,0.,24.0,0.,24.0,0.,24.0
1979-03-10 01:02:53.410 ,0,1,0.,24.0,0.,24.0,0.,24.0,0.,24.0
1979-03-10 01:03:17.410 ,1,1,0.,24.0,0.,24.0,0.,24.0,0.,24.0
1979-03-10 01:03:41.410 ,2,1,0.,24.0,0.,24.0,0.,24.0,0.,24.0
1979-03-10 01:04:05.410 ,3,1,0.,24.0,0.,24.0,0.,24.0,0.,24.0
1979-03-10 01:04:29.410 ,4,1,0.,24.0,0.,24.0,0.,24.0,0.,24.0
1979-03-10 01:04:53.410 ,5,1,0.,24.0,0.,24.0,0.,24.0,0.,24.0
1979-03-10 01:05:17.410 ,5,1,,0,,0,,0,,0
1979-03-10 01:07:55.210 ,0,0,,0,,0,,0,,0
1979-03-10 01:08:05.410 ,2,1,0.,24.0,0.,24.0,0.,24.0,0.,24.0
1979-03-10 01:08:29.410 ,1,1,0.,24.0,0.,24.0,0.,24.0,0.,24.0
1979-03-10 01:08:53.410 ,0,1,0.,24.0,0.,24.0,0.,24.0,0.,24.0
1979-03-10 01:09:17.410 ,0,1,0.,24.0,0.,24.0,0.,24.0,0.,24.0
1979-03-10 01:09:41.410 ,1,1,0.,24.0,0.,24.0,0.,24.0,0.,24.0
1979-03-10 01:10:05.410 ,2,1,0.,24.0,0.,24.0,0.,24.0,0.,24.0
1979-03-10 01:10:29.410 ,3,1,0.,24.0,0.,24.0,0.,24.0,0.,24.0
1979-03-10 01:10:53.410 ,4,1,0.,24.0,0.,24.0,0.,24.0,0.,24.0
1979-03-10 01:11:17.410 ,5,1,0.,24.0,0.,24.0,0.,24.0,0.,24.0
1979-03-10 01:11:41.410 ,6,1,0.,24.0,0.,24.0,0.,24.0,0.,24.0
1979-03-10 01:12:05.410 ,7,1,0.,24.0,0.,24.0,0.,24.0,0.,24.0
1979-03-10 01:12:29.410 ,7,1,0.,24.0,0.,24.0,0.,24.0,0.,24.0
1979-03-10 01:12:53.410 ,6,1,0.,24.0,0.,24.0,0.,24.0,0.,24.0
1979-03-10 01:13:17.410 ,5,1,0.,24.0,0.,24.0,0.,24.0,0.,24.0
1979-03-10 01:13:41.410 ,4,1,0.,24.0,0.,24.0,0.,24.0,0.,24.0
1979-03-10 01:14:05.410 ,3,1,0.,24.0,0.,24.0,0.,24.0,0.,24.0
1979-03-10 01:14:29.410 ,2,1,0.,24.0,0.,24.0,0.,24.0,0.,24.0
1979-03-10 01:14:53.410 ,1,1,0.,24.0,0.,24.0,0.,24.0,0.,24.0
1979-03-10 01:15:17.410 ,0,1,0.,24.0,0.,24.0,0.,24.0,0.,24.0
1979-03-10 01:15:41.410 ,0,1,0.,24.0,0.,24.0,0.,24.0,0.,24.0
1979-03-10 01:16:05.410 ,1,1,0.,24.0,0.,24.0,0.,24.0,0.,24.0
1979-03-10 01:16:29.410 ,2,1,0.,24.0,0.,24.0,0.,24.0,0.,24.0
1979-03-10 01:16:53.410 ,3,1,0.,24.0,0.,24.0,0.,24.0,0.,24.0
1979-03-10 01:17:17.410 ,4,1,0.,24.0,0.,24.0,0.,24.0,0.,24.0
1979-03-10 01:17:41.410 ,5,1,0.,24.0,0.,24.0,0.,24.0,0.,24.0
1979-03-10 01:18:05.410 ,6,1,0.,24.0,0.,24.0,0.,24.0,0.,24.0
1979-03-10 01:18:29.410 ,7,1,0.,24.0,0.,24.0,0.,24.0,0.,24.0
1979-03-10 01:18:53.410 ,7,1,0.,24.0,0.,24.0,0.,24.0,0.,24.0
1979-03-10 01:19:17.410 ,6,1,0.,24.0,0.,24.0,0.,24.0,0.,24.0
1979-03-10 01:19:41.410 ,5,1,0.,24.0,0.,24.0,0.,24.0,0.,24.0
1979-03-10 01:20:05.410 ,4,1,0.,24.0,0.,24.0,0.,24.0,0.,24.0
1979-03-10 01:20:29.410 ,3,1,0.,24.0,0.,24.0,0.,24.0,0.,24.0
1979-03-10 01:20:53.410 ,2,1,0.,24.0,0.,24.0,0.,24.0,0.,24.0
1979-03-10 01:21:17.410 ,1,1,0.,24.0,0.,24.0,0.,24.0,0.,24.0
1979-03-10 01:22:29.410 ,0,0,,0,,0,,0,,0
1979-03-10 01:22:53.410 ,0,0,0.,24.0,0.,24.0,0.,24.0,0.,24.0
1979-03-10 01:23:17.410 ,3,1,0.,24.0,2097152.,24.0,0.,24.0,0.,24.0
1979-03-10 01:23:41.410 ,4,0,,0,,0,,0,,0
1979-03-10 01:26:29.410 ,0,0,,0,,0,,0,,0
1979-03-10 01:26:53.410 ,3,1,0.,24.0,2162688.,24.0,0.,24.0,0.,24.0
1979-03-10 01:27:17.410 ,0,0,0.,24.0,0.,24.0,10240.,24.0,2097152.,24.0
1979-03-10 01:27:41.410 ,0,0,0.,24.0,0.,24.0,8192.,24.0,2097152.,24.0
1979-03-10 01:28:05.410 ,0,0,0.,24.0,2752512.,24.0,0.,24.0,0.,24.0
1979-03-10 01:28:29.410 ,0,0,,0,,0,,0,,0
1979-03-10 01:29:41.410 ,0,0,,0,,0,,0,,0
1979-03-10 01:30:05.410 ,0,0,0.,24.0,0.,24.0,10240.,24.0,0.,24.0
1979-03-10 01:30:29.410 ,0,0,,0,,0,,0,,0
1979-03-10 01:30:53.410 ,0,0,,0,,0,,0,,0
1979-03-10 01:31:17.410 ,0,0,0.,24.0,0.,24.0,0.,24.0,0.,24.0
1979-03-10 01:31:41.410 ,0,0,,0,,0,,0,,0
1979-03-10 01:31:46.210 ,7,1,0.,24.0,0.,24.0,0.,24.0,0.,24.0
1979-03-10 01:32:05.410 ,6,1,0.,24.0,0.,24.0,0.,24.0,0.,24.0
1979-03-10 01:32:29.410 ,5,1,0.,24.0,0.,24.0,0.,24.0,0.,24.0
1979-03-10 01:32:53.410 ,4,1,0.,24.0,0.,24.0,0.,24.0,0.,24.0
1979-03-10 01:33:17.410 ,3,1,0.,24.0,0.,24.0,0.,24.0,0.,24.0
1979-03-10 01:33:41.410 ,2,1,0.,24.0,0.,24.0,0.,24.0,0.,24.0
1979-03-10 01:34:05.410 ,1,1,0.,24.0,0.,24.0,0.,24.0,0.,24.0
1979-03-10 01:34:29.410 ,0,1,0.,24.0,0.,24.0,0.,24.0,0.,24.0
1979-03-10 01:34:53.410 ,0,1,0.,24.0,0.,24.0,0.,24.0,0.,24.0
1979-03-10 01:35:17.410 ,1,1,0.,24.0,0.,24.0,0.,24.0,0.,24.0
1979-03-10 01:35:41.410 ,2,1,0.,24.0,0.,24.0,0.,24.0,0.,24.0
1979-03-10 01:36:05.410 ,3,1,0.,24.0,0.,24.0,0.,24.0,0.,24.0
1979-03-10 01:36:29.410 ,4,1,0.,24.0,0.,24.0,0.,24.0,0.,24.0
1979-03-10 01:36:53.410 ,5,1,0.,24.0,0.,24.0,0.,24.0,0.,24.0
1979-03-10 01:37:17.410 ,6,1,0.,24.0,0.,24.0,0.,24.0,0.,24.0
1979-03-10 01:37:41.410 ,7,1,0.,24.0,0.,24.0,0.,24.0,0.,24.0
1979-03-10 01:38:05.410 ,7,1,0.,24.0,0.,24.0,0.,24.0,0.,24.0
1979-03-10 01:38:29.410 ,6,1,0.,24.0,0.,24.0,0.,24.0,0.,24.0
1979-03-10 01:38:53.410 ,5,1,0.,24.0,0.,24.0,0.,24.0,0.,24.0
1979-03-10 01:39:17.410 ,4,1,0.,24.0,0.,24.0,0.,24.0,0.,24.0
1979-03-10 01:39:41.410 ,3,1,0.,24.0,0.,24.0,0.,24.0,0.,24.0
1979-03-10 01:40:05.410 ,2,1,0.,24.0,0.,24.0,0.,24.0,0.,24.0
1979-03-10 01:40:29.410 ,1,1,0.,24.0,0.,24.0,0.,24.0,0.,24.0
1979-03-10 01:40:53.410 ,0,1,0.,24.0,0.,24.0,0.,24.0,0.,24.0
1979-03-10 01:41:17.410 ,0,1,0.,24.0,0.,24.0,0.,24.0,0.,24.0
1979-03-10 01:41:41.410 ,1,1,0.,24.0,0.,24.0,0.,24.0,0.,24.0
1979-03-10 01:42:05.410 ,2,1,0.,24.0,0.,24.0,0.,24.0,0.,24.0
1979-03-10 01:42:29.410 ,3,1,0.,24.0,0.,24.0,0.,24.0,0.,24.0
1979-03-10 01:42:53.410 ,4,1,0.,24.0,0.,24.0,0.,24.0,0.,24.0
1979-03-10 01:43:17.410 ,5,1,0.,24.0,0.,24.0,0.,24.0,0.,24.0
1979-03-10 01:43:41.410 ,6,1,0.,24.0,0.,24.0,0.,24.0,0.,24.0
1979-03-10 01:44:05.410 ,7,1,0.,24.0,0.,24.0,0.,24.0,0.,24.0
1979-03-10 01:44:29.410 ,7,1,0.,24.0,0.,24.0,0.,24.0,0.,24.0
1979-03-10 01:44:53.410 ,6,1,0.,24.0,0.,24.0,0.,24.0,0.,24.0
1979-03-10 01:45:17.410 ,5,1,0.,24.0,0.,24.0,0.,24.0,0.,24.0
1979-03-10 01:45:41.410 ,4,1,0.,24.0,0.,24.0,0.,24.0,0.,24.0
1979-03-10 01:46:05.410 ,3,1,0.,24.0,0.,24.0,0.,24.0,0.,24.0
1979-03-10 01:46:29.410 ,2,1,0.,24.0,0.,24.0,0.,24.0,0.,24.0
1979-03-10 01:46:53.410 ,1,1,0.,24.0,0.,24.0,0.,24.0,0.,24.0
1979-03-10 01:47:17.410 ,0,1,0.,24.0,0.,24.0,0.,24.0,0.,24.0
1979-03-10 01:47:41.410 ,0,1,0.,24.0,0.,24.0,0.,24.0,0.,24.0
1979-03-10 01:48:05.410 ,1,1,0.,24.0,0.,24.0,0.,24.0,0.,24.0
1979-03-10 01:48:29.410 ,2,1,0.,24.0,0.,24.0,0.,24.0,0.,24.0
1979-03-10 01:48:53.410 ,3,1,0.,24.0,0.,24.0,0.,24.0,0.,24.0
1979-03-10 01:49:17.410 ,4,1,0.,24.0,0.,24.0,0.,24.0,0.,24.0
1979-03-10 01:49:41.410 ,5,1,0.,24.0,0.,24.0,0.,24.0,0.,24.0
1979-03-10 01:50:05.410 ,6,1,0.,24.0,0.,24.0,0.,24.0,0.,24.0
1979-03-10 01:50:29.410 ,7,1,0.,24.0,0.,24.0,0.,24.0,0.,24.0
1979-03-10 01:50:53.410 ,7,1,0.,24.0,0.,24.0,0.,24.0,0.,24.0
1979-03-10 01:51:17.410 ,6,1,0.,24.0,0.,24.0,0.,24.0,0.,24.0
1979-03-10 01:51:41.410 ,5,1,0.,24.0,0.,24.0,0.,24.0,0.,24.0
1979-03-10 01:52:05.410 ,4,1,0.,24.0,0.,24.0,0.,24.0,0.,24.0
1979-03-10 01:52:29.410 ,3,1,0.,24.0,0.,24.0,0.,24.0,0.,24.0
1979-03-10 01:52:53.410 ,2,1,0.,24.0,0.,24.0,0.,24.0,0.,24.0
1979-03-10 01:53:17.410 ,1,1,0.,24.0,0.,24.0,0.,24.0,0.,24.0
1979-03-10 01:53:41.410 ,0,1,0.,24.0,0.,24.0,0.,24.0,0.,24.0
1979-03-10 01:54:05.410 ,0,1,0.,24.0,0.,24.0,0.,24.0,0.,24.0
1979-03-10 01:54:29.410 ,1,1,0.,24.0,0.,24.0,0.,24.0,0.,24.0
1979-03-10 01:54:53.410 ,2,1,0.,24.0,0.,24.0,0.,24.0,0.,24.0
1979-03-10 01:55:17.410 ,3,1,0.,24.0,0.,24.0,0.,24.0,0.,24.0
1979-03-10 01:55:41.410 ,4,1,0.,24.0,0.,24.0,0.,24.0,0.,24.0
1979-03-10 01:56:05.410 ,5,1,0.,24.0,0.,24.0,0.,24.0,0.,24.0
1979-03-10 01:56:29.410 ,6,1,0.,24.0,0.,24.0,0.,24.0,0.,24.0
1979-03-10 01:56:53.410 ,7,1,0.,24.0,0.,24.0,0.,24.0,0.,24.0
1979-03-10 01:57:17.410 ,7,1,0.,24.0,0.,24.0,0.,24.0,0.,24.0
1979-03-10 01:57:41.410 ,6,1,0.,24.0,0.,24.0,0.,24.0,0.,24.0
1979-03-10 01:58:05.410 ,5,1,0.,24.0,0.,24.0,0.,24.0,0.,24.0
1979-03-10 01:58:29.410 ,4,1,0.,24.0,0.,24.0,0.,24.0,0.,24.0
1979-03-10 01:58:53.410 ,3,1,0.,24.0,0.,24.0,0.,24.0,0.,24.0
1979-03-10 01:59:17.410 ,2,1,0.,24.0,0.,24.0,0.,24.0,0.,24.0
1979-03-10 01:59:41.410 ,1,1,0.,24.0,0.,24.0,0.,24.0,0.,24.0
1979-03-10 02:00:05.410 ,0,1,0.,24.0,0.,24.0,0.,24.0,0.,24.0
1979-03-10 02:00:29.410 ,0,1,0.,24.0,0.,24.0,0.,24.0,0.,24.0
1979-03-10 02:00:53.410 ,1,1,0.,24.0,0.,24.0,0.,24.0,0.,24.0
1979-03-10 02:01:17.410 ,2,1,0.,24.0,0.,24.0,0.,24.0,0.,24.0
1979-03-10 02:01:41.410 ,3,1,0.,24.0,0.,24.0,0.,24.0,0.,24.0
1979-03-10 02:02:05.410 ,4,1,0.,24.0,0.,24.0,0.,24.0,0.,24.0
1979-03-10 02:02:29.410 ,5,1,0.,24.0,0.,24.0,0.,24.0,0.,24.0
1979-03-10 02:02:53.410 ,6,1,0.,24.0,0.,24.0,0.,24.0,0.,24.0
1979-03-10 02:03:17.410 ,7,1,0.,24.0,0.,24.0,0.,24.0,0.,24.0
1979-03-10 02:03:41.410 ,7,1,0.,24.0,0.,24.0,0.,24.0,0.,24.0
1979-03-10 02:04:05.410 ,6,1,0.,24.0,0.,24.0,0.,24.0,0.,24.0
1979-03-10 02:04:29.410 ,5,1,0.,24.0,0.,24.0,0.,24.0,0.,24.0
1979-03-10 02:04:53.410 ,4,1,0.,24.0,0.,24.0,0.,24.0,0.,24.0
1979-03-10 02:05:17.410 ,3,1,0.,24.0,0.,24.0,0.,24.0,0.,24.0
1979-03-10 02:05:41.410 ,2,1,0.,24.0,0.,24.0,0.,24.0,0.,24.0
1979-03-10 02:06:05.410 ,1,1,0.,24.0,0.,24.0,0.,24.0,0.,24.0
1979-03-10 02:06:29.410 ,0,1,0.,24.0,0.,24.0,0.,24.0,0.,24.0
1979-03-10 02:06:53.410 ,0,1,0.,24.0,0.,24.0,0.,24.0,0.,24.0
1979-03-10 02:07:17.410 ,1,1,0.,24.0,0.,24.0,0.,24.0,0.,24.0
1979-03-10 02:07:41.410 ,2,1,0.,24.0,0.,24.0,0.,24.0,0.,24.0
1979-03-10 02:08:05.410 ,3,1,0.,24.0,0.,24.0,0.,24.0,0.,24.0
1979-03-10 02:08:29.410 ,4,1,0.,24.0,0.,24.0,0.,24.0,0.,24.0
1979-03-10 02:08:53.410 ,5,1,0.,24.0,0.,24.0,0.,24.0,0.,24.0
1979-03-10 02:09:17.410 ,6,1,0.,24.0,0.,24.0,0.,24.0,0.,24.0
1979-03-10 02:09:41.410 ,7,1,0.,24.0,0.,24.0,0.,24.0,0.,24.0
1979-03-10 02:10:05.410 ,7,1,0.,24.0,0.,24.0,0.,24.0,0.,24.0
1979-03-10 02:10:29.410 ,6,1,0.,24.0,0.,24.0,0.,24.0,0.,24.0
1979-03-10 02:10:53.410 ,5,1,0.,24.0,0.,24.0,0.,24.0,0.,24.0
1979-03-10 02:11:17.410 ,4,1,0.,24.0,0.,24.0,0.,24.0,0.,24.0
1979-03-10 02:11:41.410 ,3,1,0.,24.0,0.,24.0,0.,24.0,0.,24.0
1979-03-10 02:12:05.410 ,2,1,0.,24.0,0.,24.0,0.,24.0,0.,24.0
1979-03-10 02:12:29.410 ,1,1,0.,24.0,0.,24.0,0.,24.0,0.,24.0
1979-03-10 02:12:53.410 ,0,1,0.,24.0,0.,24.0,0.,24.0,0.,24.0
1979-03-10 02:13:17.410 ,0,1,0.,24.0,0.,24.0,0.,24.0,0.,24.0
1979-03-10 02:13:41.410 ,1,1,0.,24.0,0.,24.0,0.,24.0,0.,24.0
1979-03-10 02:14:05.410 ,2,1,0.,24.0,0.,24.0,0.,24.0,0.,24.0
1979-03-10 02:14:29.410 ,3,1,0.,24.0,0.,24.0,0.,24.0,0.,24.0
1979-03-10 02:14:53.410 ,4,1,0.,24.0,0.,24.0,0.,24.0,0.,24.0
1979-03-10 02:15:17.410 ,5,1,0.,24.0,0.,24.0,0.,24.0,0.,24.0
1979-03-10 02:15:41.410 ,6,1,0.,24.0,0.,24.0,0.,24.0,0.,24.0
1979-03-10 02:16:05.410 ,7,1,0.,24.0,0.,24.0,0.,24.0,0.,24.0
1979-03-10 02:16:29.410 ,7,1,0.,24.0,0.,24.0,0.,24.0,0.,24.0
1979-03-10 02:16:53.410 ,6,1,0.,24.0,0.,24.0,0.,24.0,0.,24.0
1979-03-10 02:17:17.410 ,5,1,0.,24.0,0.,24.0,0.,24.0,0.,24.0
1979-03-10 02:17:41.410 ,4,1,0.,24.0,0.,24.0,0.,24.0,0.,24.0
1979-03-10 02:18:05.410 ,3,1,0.,24.0,0.,24.0,0.,24.0,0.,24.0
1979-03-10 02:18:29.410 ,2,1,0.,24.0,0.,24.0,0.,24.0,0.,24.0
1979-03-10 02:18:53.410 ,1,1,0.,24.0,0.,24.0,0.,24.0,0.,24.0
1979-03-10 02:19:17.410 ,0,1,0.,24.0,0.,24.0,0.,24.0,0.,24.0
1979-03-10 02:19:41.410 ,0,1,0.,24.0,0.,24.0,0.,24.0,0.,24.0
1979-03-10 02:20:05.410 ,1,1,0.,24.0,0.,24.0,0.,24.0,0.,24.0
1979-03-10 02:20:29.410 ,2,1,0.,24.0,0.,24.0,0.,24.0,0.,24.0
1979-03-10 02:20:53.410 ,3,1,0.,24.0,0.,24.0,0.,24.0,0.,24.0
1979-03-10 02:21:17.410 ,4,1,0.,24.0,0.,24.0,0.,24.0,0.,24.0
1979-03-10 02:21:41.410 ,5,1,0.,24.0,0.,24.0,0.,24.0,0.,24.0
1979-03-10 02:22:05.410 ,6,1,0.,24.0,0.,24.0,0.,24.0,0.,24.0
1979-03-10 02:22:29.410 ,7,1,0.,24.0,0.,24.0,0.,24.0,0.,24.0
1979-03-10 02:22:53.410 ,7,1,0.,24.0,0.,24.0,0.,24.0,0.,24.0
1979-03-10 02:23:17.410 ,6,1,0.,24.0,0.,24.0,0.,24.0,0.,24.0
1979-03-10 02:23:41.410 ,5,1,0.,24.0,0.,24.0,0.,24.0,0.,24.0
1979-03-10 02:24:05.410 ,4,1,0.,24.0,0.,24.0,0.,24.0,0.,24.0
1979-03-10 02:24:29.410 ,3,1,0.,24.0,0.,24.0,0.,24.0,0.,24.0
1979-03-10 02:24:53.410 ,2,1,0.,24.0,0.,24.0,0.,24.0,0.,24.0
1979-03-10 02:25:17.410 ,1,1,0.,24.0,0.,24.0,0.,24.0,0.,24.0
1979-03-10 02:25:41.410 ,0,1,0.,24.0,0.,24.0,0.,24.0,0.,24.0
1979-03-10 02:26:05.410 ,0,1,0.,24.0,0.,24.0,0.,24.0,0.,24.0
1979-03-10 02:26:29.410 ,1,1,0.,24.0,0.,24.0,0.,24.0,0.,24.0
1979-03-10 02:26:53.410 ,2,1,0.,24.0,0.,24.0,0.,24.0,0.,24.0
1979-03-10 02:27:17.410 ,3,1,0.,24.0,0.,24.0,0.,24.0,0.,24.0
1979-03-10 02:27:41.410 ,4,1,0.,24.0,0.,24.0,0.,24.0,0.,24.0
1979-03-10 02:28:05.410 ,5,1,0.,24.0,0.,24.0,0.,24.0,0.,24.0
1979-03-10 02:28:29.410 ,6,1,0.,24.0,0.,24.0,0.,24.0,0.,24.0
1979-03-10 02:28:53.410 ,7,1,0.,24.0,0.,24.0,0.,24.0,0.,24.0
1979-03-10 02:29:17.410 ,7,1,0.,24.0,0.,24.0,0.,24.0,0.,24.0
1979-03-10 02:29:41.410 ,6,1,0.,24.0,0.,24.0,0.,24.0,0.,24.0
1979-03-10 02:30:05.410 ,5,1,0.,24.0,0.,24.0,0.,24.0,0.,24.0
1979-03-10 02:30:29.410 ,4,1,0.,24.0,0.,24.0,0.,24.0,0.,24.0
1979-03-10 02:30:53.410 ,3,1,0.,24.0,0.,24.0,0.,24.0,0.,24.0
1979-03-10 02:31:17.410 ,2,1,0.,24.0,0.,24.0,0.,24.0,0.,24.0
1979-03-10 02:31:41.410 ,1,1,0.,24.0,0.,24.0,0.,24.0,0.,24.0
1979-03-10 02:32:05.410 ,0,1,0.,24.0,0.,24.0,0.,24.0,0.,24.0
1979-03-10 02:32:29.410 ,0,1,0.,24.0,0.,24.0,0.,24.0,0.,24.0
1979-03-10 02:32:53.410 ,1,1,0.,24.0,0.,24.0,0.,24.0,0.,24.0
1979-03-10 02:33:17.410 ,2,1,0.,24.0,0.,24.0,0.,24.0,0.,24.0
1979-03-10 02:33:41.410 ,3,1,0.,24.0,0.,24.0,0.,24.0,0.,24.0
1979-03-10 02:34:05.410 ,4,1,0.,24.0,0.,24.0,0.,24.0,0.,24.0
1979-03-10 02:34:29.410 ,5,1,0.,24.0,0.,24.0,0.,24.0,0.,24.0
1979-03-10 02:34:53.410 ,6,1,0.,24.0,0.,24.0,0.,24.0,0.,24.0
1979-03-10 02:35:17.410 ,7,1,0.,24.0,0.,24.0,0.,24.0,0.,24.0
1979-03-10 02:35:41.410 ,7,1,0.,24.0,0.,24.0,0.,24.0,0.,24.0
1979-03-10 02:36:05.410 ,6,1,0.,24.0,0.,24.0,0.,24.0,0.,24.0
1979-03-10 02:36:29.410 ,5,1,0.,24.0,0.,24.0,0.,24.0,0.,24.0
1979-03-10 02:36:53.410 ,4,1,0.,24.0,0.,24.0,0.,24.0,0.,24.0
1979-03-10 02:37:17.410 ,3,1,0.,24.0,0.,24.0,0.,24.0,0.,24.0
1979-03-10 02:37:41.410 ,2,1,0.,24.0,0.,24.0,0.,24.0,0.,24.0
1979-03-10 02:38:05.410 ,1,1,0.,24.0,0.,24.0,0.,24.0,0.,24.0
1979-03-10 02:38:29.410 ,0,1,0.,24.0,0.,24.0,0.,24.0,0.,24.0
1979-03-10 02:38:53.410 ,0,1,0.,24.0,0.,24.0,0.,24.0,0.,24.0
1979-03-10 02:39:17.410 ,2,1,0.,24.0,0.,24.0,0.,24.0,0.,24.0
1979-03-10 02:39:41.410 ,6,1,0.,24.0,0.,24.0,0.,24.0,0.,24.0
1979-03-10 02:40:05.410 ,5,1,0.,24.0,0.,24.0,0.,24.0,0.,24.0
1979-03-10 02:40:29.410 ,1,1,0.,24.0,0.,24.0,0.,24.0,0.,24.0
1979-03-10 02:40:53.410 ,2,1,0.,24.0,0.,24.0,0.,24.0,0.,24.0